FENGYUN 3E

Last updated on Sun Oct 26 2025 00:02:30 GMT+0000 (Coordinated Universal Time)

1 49008U 21062A 25298.54442568 .00000027 00000+0 33645-4 0 9999 2 49008 98.7483 299.6344 0002516 61.6747 298.4683 14.19870198223289
UTC large
Height (km)
Speed (km/s)
/
Latitude / Longitude
Inclination (degrees)
Orbital Period (minutes)
Azimuth
Elevation
Range (km)
Doppler Factor

Next 0 passes for location: London (51.5072 / 0.1276)

Sorry there are no passes over London.